START_TIME,STEP,MOV.,A46,t_acc.,A13,t_acc.,M47,t_acc.,A17,t_acc.,A28,t_acc.,M38,t_acc.
1979-07-02 00:00:26.430 ,0,0,,0,4.,4.8,0.,4.8,,0,0.,4.8,0.,4.8
1979-07-02 00:00:31.230 ,0,0,,0,2.,4.8,0.,4.8,,0,0.,4.8,0.,4.8
1979-07-02 00:00:36.030 ,0,0,,0,4.,4.8,0.,4.8,,0,0.,4.8,0.,4.8
1979-07-02 00:00:40.830 ,0,0,,0,0.,4.8,0.,4.8,,0,0.,4.8,0.,4.8
1979-07-02 00:00:45.630 ,0,0,,0,0.,4.8,0.,4.8,,0,0.,4.8,0.,4.8
1979-07-02 00:00:50.430 ,1,0,,0,0.,4.8,0.,4.8,,0,0.,4.8,0.,4.8
1979-07-02 00:00:55.230 ,1,0,,0,0.,4.8,0.,4.8,,0,0.,4.8,0.,4.8
1979-07-02 00:01:00.030 ,1,0,,0,0.,4.8,0.,4.8,,0,0.,4.8,2.,4.8
1979-07-02 00:01:04.830 ,1,0,,0,6.,4.8,1.,4.8,,0,0.,4.8,0.,4.8
1979-07-02 00:01:09.630 ,1,0,,0,6.,4.8,0.,4.8,,0,0.,4.8,0.,4.8
1979-07-02 00:01:14.430 ,1,0,,0,2.,4.8,0.,4.8,,0,0.,4.8,1.,4.8
1979-07-02 00:01:19.230 ,1,0,,0,6.,4.8,0.,4.8,,0,0.,4.8,0.,4.8
1979-07-02 00:01:24.030 ,1,0,,0,6.,4.8,0.,4.8,,0,0.,4.8,0.,4.8
1979-07-02 00:01:28.830 ,1,0,,0,0.,4.8,0.,4.8,,0,0.,4.8,0.,4.8
1979-07-02 00:01:33.630 ,1,0,,0,0.,4.8,0.,4.8,,0,0.,4.8,0.,4.8
1979-07-02 00:01:38.430 ,2,0,,0,0.,4.8,0.,4.8,,0,0.,4.8,0.,4.8
1979-07-02 00:01:43.230 ,2,0,,0,0.,4.8,0.,4.8,,0,0.,4.8,1.,4.8
1979-07-02 00:01:48.030 ,2,0,,0,1.,4.8,0.,4.8,,0,0.,4.8,0.,4.8
1979-07-02 00:01:52.830 ,2,0,,0,6.,4.8,0.,4.8,,0,0.,4.8,3.,4.8
1979-07-02 00:01:57.630 ,2,0,,0,10.,4.8,1.,4.8,,0,0.,4.8,2.,4.8
1979-07-02 00:02:02.430 ,2,0,,0,8.,4.8,0.,4.8,,0,0.,4.8,1.,4.8
1979-07-02 00:02:07.230 ,2,0,,0,11.,4.8,1.,4.8,,0,0.,4.8,0.,4.8
1979-07-02 00:02:12.030 ,2,0,,0,7.,4.8,0.,4.8,,0,0.,4.8,0.,4.8
1979-07-02 00:02:16.830 ,2,0,,0,0.,4.8,0.,4.8,,0,0.,4.8,0.,4.8
1979-07-02 00:02:21.630 ,2,0,,0,0.,4.8,0.,4.8,,0,0.,4.8,0.,4.8
1979-07-02 00:02:26.430 ,3,0,,0,0.,4.8,0.,4.8,,0,0.,4.8,0.,4.8
1979-07-02 00:02:31.230 ,3,0,,0,0.,4.8,0.,4.8,,0,0.,4.8,0.,4.8
1979-07-02 00:02:36.030 ,3,0,,0,1.,4.8,0.,4.8,,0,0.,4.8,0.,4.8
1979-07-02 00:02:40.830 ,3,0,,0,2.,4.8,0.,4.8,,0,0.,4.8,0.,4.8
1979-07-02 00:02:45.630 ,3,0,,0,7.,4.8,0.,4.8,,0,0.,4.8,0.,4.8
1979-07-02 00:02:50.430 ,3,0,,0,8.,4.8,0.,4.8,,0,0.,4.8,0.,4.8
1979-07-02 00:02:55.230 ,3,0,,0,6.,4.8,0.,4.8,,0,0.,4.8,1.,4.8
1979-07-02 00:03:00.030 ,3,0,,0,11.,4.8,0.,4.8,,0,0.,4.8,2.,4.8
1979-07-02 00:03:04.830 ,3,0,,0,0.,4.8,0.,4.8,,0,0.,4.8,0.,4.8
1979-07-02 00:03:09.630 ,3,0,,0,0.,4.8,0.,4.8,,0,0.,4.8,0.,4.8
1979-07-02 00:03:14.430 ,4,0,,0,0.,4.8,0.,4.8,,0,0.,4.8,1.,4.8
1979-07-02 00:03:19.230 ,4,0,,0,0.,4.8,0.,4.8,,0,0.,4.8,0.,4.8
1979-07-02 00:03:24.030 ,4,0,,0,1.,4.8,0.,4.8,,0,0.,4.8,0.,4.8
1979-07-02 00:03:28.830 ,4,0,,0,11.,4.8,0.,4.8,,0,0.,4.8,0.,4.8
1979-07-02 00:03:33.630 ,4,0,,0,7.,4.8,0.,4.8,,0,1.,4.8,0.,4.8
1979-07-02 00:03:38.430 ,4,0,,0,4.,4.8,0.,4.8,,0,0.,4.8,0.,4.8
1979-07-02 00:03:43.230 ,4,0,,0,8.,4.8,0.,4.8,,0,0.,4.8,0.,4.8
1979-07-02 00:03:48.030 ,4,0,,0,7.,4.8,0.,4.8,,0,0.,4.8,0.,4.8
1979-07-02 00:03:52.830 ,4,0,,0,0.,4.8,0.,4.8,,0,0.,4.8,1.,4.8
1979-07-02 00:03:57.630 ,4,0,,0,0.,4.8,0.,4.8,,0,0.,4.8,0.,4.8
1979-07-02 00:04:02.430 ,5,0,,0,0.,4.8,0.,4.8,,0,0.,4.8,0.,4.8
1979-07-02 00:04:07.230 ,5,0,,0,0.,4.8,0.,4.8,,0,0.,4.8,0.,4.8
1979-07-02 00:04:12.030 ,5,0,,0,1.,4.8,0.,4.8,,0,0.,4.8,0.,4.8
1979-07-02 00:04:16.830 ,5,0,,0,6.,4.8,0.,4.8,,0,0.,4.8,0.,4.8
1979-07-02 00:04:21.630 ,5,0,,0,6.,4.8,0.,4.8,,0,0.,4.8,0.,4.8
1979-07-02 00:04:26.430 ,5,0,,0,9.,4.8,0.,4.8,,0,0.,4.8,0.,4.8
1979-07-02 00:04:31.230 ,5,0,,0,6.,4.8,0.,4.8,,0,0.,4.8,0.,4.8
1979-07-02 00:04:36.030 ,5,0,,0,9.,4.8,0.,4.8,,0,0.,4.8,0.,4.8
1979-07-02 00:04:40.830 ,5,0,,0,0.,4.8,0.,4.8,,0,0.,4.8,0.,4.8
1979-07-02 00:04:45.630 ,5,0,,0,0.,4.8,0.,4.8,,0,0.,4.8,1.,4.8
1979-07-02 00:04:50.430 ,6,0,,0,0.,4.8,0.,4.8,,0,0.,4.8,0.,4.8
1979-07-02 00:04:55.230 ,6,0,,0,0.,4.8,0.,4.8,,0,0.,4.8,0.,4.8
1979-07-02 00:05:00.030 ,6,0,,0,1.,4.8,0.,4.8,,0,0.,4.8,0.,4.8
1979-07-02 00:05:04.830 ,6,0,,0,8.,4.8,0.,4.8,,0,0.,4.8,0.,4.8
1979-07-02 00:05:09.630 ,6,0,,0,8.,4.8,0.,4.8,,0,0.,4.8,0.,4.8
1979-07-02 00:05:14.430 ,6,0,,0,5.,4.8,0.,4.8,,0,0.,4.8,0.,4.8
1979-07-02 00:05:19.230 ,6,0,,0,7.,4.8,0.,4.8,,0,0.,4.8,0.,4.8
1979-07-02 00:05:24.030 ,6,0,,0,11.,4.8,1.,4.8,,0,0.,4.8,0.,4.8
1979-07-02 00:05:28.830 ,6,0,,0,0.,4.8,0.,4.8,,0,0.,4.8,0.,4.8
1979-07-02 00:05:33.630 ,6,0,,0,1.,4.8,0.,4.8,,0,0.,4.8,0.,4.8
1979-07-02 00:05:38.430 ,7,0,,0,0.,4.8,0.,4.8,,0,0.,4.8,0.,4.8
1979-07-02 00:05:43.230 ,7,0,,0,0.,4.8,0.,4.8,,0,1.,4.8,0.,4.8
1979-07-02 00:05:48.030 ,7,0,,0,4.,4.8,0.,4.8,,0,0.,4.8,1.,4.8
1979-07-02 00:05:52.830 ,7,0,,0,12.,4.8,0.,4.8,,0,0.,4.8,0.,4.8
1979-07-02 00:05:57.630 ,7,0,,0,16.,4.8,0.,4.8,,0,0.,4.8,0.,4.8
1979-07-02 00:06:02.430 ,7,0,,0,21.,4.8,0.,4.8,,0,0.,4.8,0.,4.8
1979-07-02 00:06:07.230 ,7,0,,0,10.,4.8,0.,4.8,,0,0.,4.8,0.,4.8
1979-07-02 00:06:12.030 ,7,0,,0,14.,4.8,0.,4.8,,0,0.,4.8,0.,4.8
1979-07-02 00:06:16.830 ,7,0,,0,0.,4.8,0.,4.8,,0,0.,4.8,0.,4.8
1979-07-02 00:06:21.630 ,7,0,,0,0.,4.8,0.,4.8,,0,0.,4.8,0.,4.8
1979-07-02 00:06:26.430 ,7,0,,0,0.,4.8,0.,4.8,,0,0.,4.8,0.,4.8
1979-07-02 00:06:31.230 ,7,0,,0,0.,4.8,0.,4.8,,0,0.,4.8,0.,4.8
1979-07-02 00:06:36.030 ,7,0,,0,4.,4.8,0.,4.8,,0,0.,4.8,0.,4.8
1979-07-02 00:06:40.830 ,7,0,,0,16.,4.8,0.,4.8,,0,0.,4.8,0.,4.8
1979-07-02 00:06:45.630 ,7,0,,0,11.,4.8,0.,4.8,,0,0.,4.8,0.,4.8
1979-07-02 00:06:50.430 ,7,0,,0,18.,4.8,0.,4.8,,0,0.,4.8,0.,4.8
1979-07-02 00:06:55.230 ,7,0,,0,17.,4.8,0.,4.8,,0,0.,4.8,0.,4.8
1979-07-02 00:07:00.030 ,7,0,,0,12.,4.8,0.,4.8,,0,0.,4.8,0.,4.8
1979-07-02 00:07:04.830 ,7,0,,0,0.,4.8,0.,4.8,,0,0.,4.8,0.,4.8
1979-07-02 00:07:09.630 ,7,0,,0,1.,4.8,0.,4.8,,0,0.,4.8,0.,4.8
1979-07-02 00:07:14.430 ,6,0,,0,0.,4.8,0.,4.8,,0,0.,4.8,0.,4.8
1979-07-02 00:07:19.230 ,6,0,,0,0.,4.8,0.,4.8,,0,0.,4.8,0.,4.8
1979-07-02 00:07:24.030 ,6,0,,0,1.,4.8,0.,4.8,,0,0.,4.8,0.,4.8
1979-07-02 00:07:28.830 ,6,0,,0,9.,4.8,0.,4.8,,0,0.,4.8,0.,4.8
1979-07-02 00:07:33.630 ,6,0,,0,5.,4.8,0.,4.8,,0,0.,4.8,0.,4.8
1979-07-02 00:07:38.430 ,6,0,,0,11.,4.8,0.,4.8,,0,0.,4.8,0.,4.8
1979-07-02 00:07:43.230 ,6,0,,0,6.,4.8,0.,4.8,,0,0.,4.8,0.,4.8
1979-07-02 00:07:48.030 ,6,0,,0,9.,4.8,0.,4.8,,0,0.,4.8,0.,4.8
1979-07-02 00:07:52.830 ,6,0,,0,0.,4.8,0.,4.8,,0,0.,4.8,0.,4.8
1979-07-02 00:07:57.630 ,6,0,,0,0.,4.8,0.,4.8,,0,0.,4.8,0.,4.8
1979-07-02 00:08:02.430 ,5,0,,0,0.,4.8,0.,4.8,,0,0.,4.8,0.,4.8
1979-07-02 00:08:07.230 ,5,0,,0,0.,4.8,0.,4.8,,0,0.,4.8,1.,4.8
1979-07-02 00:08:12.030 ,5,0,,0,2.,4.8,0.,4.8,,0,0.,4.8,0.,4.8
1979-07-02 00:08:16.830 ,5,0,,0,11.,4.8,0.,4.8,,0,0.,4.8,1.,4.8
1979-07-02 00:08:21.630 ,5,0,,0,8.,4.8,0.,4.8,,0,0.,4.8,2.,4.8
1979-07-02 00:08:26.430 ,5,0,,0,10.,4.8,0.,4.8,,0,0.,4.8,0.,4.8
1979-07-02 00:08:31.230 ,5,0,,0,7.,4.8,0.,4.8,,0,0.,4.8,0.,4.8
1979-07-02 00:08:36.030 ,5,0,,0,8.,4.8,0.,4.8,,0,0.,4.8,1.,4.8
1979-07-02 00:08:40.830 ,5,0,,0,0.,4.8,0.,4.8,,0,0.,4.8,0.,4.8
1979-07-02 00:08:45.630 ,5,0,,0,0.,4.8,0.,4.8,,0,0.,4.8,0.,4.8
1979-07-02 00:08:50.430 ,4,0,,0,0.,4.8,0.,4.8,,0,0.,4.8,1.,4.8
1979-07-02 00:08:55.230 ,4,0,,0,0.,4.8,0.,4.8,,0,0.,4.8,0.,4.8
1979-07-02 00:09:00.030 ,4,0,,0,1.,4.8,0.,4.8,,0,0.,4.8,0.,4.8
1979-07-02 00:09:04.830 ,4,0,,0,8.,4.8,0.,4.8,,0,0.,4.8,1.,4.8
1979-07-02 00:09:09.630 ,4,0,,0,3.,4.8,0.,4.8,,0,0.,4.8,1.,4.8
1979-07-02 00:09:14.430 ,4,0,,0,10.,4.8,0.,4.8,,0,0.,4.8,0.,4.8
1979-07-02 00:09:19.230 ,4,0,,0,8.,4.8,0.,4.8,,0,0.,4.8,0.,4.8
1979-07-02 00:09:24.030 ,4,0,,0,9.,4.8,0.,4.8,,0,0.,4.8,0.,4.8
1979-07-02 00:09:28.830 ,4,0,,0,0.,4.8,0.,4.8,,0,1.,4.8,1.,4.8
1979-07-02 00:09:33.630 ,4,0,,0,0.,4.8,0.,4.8,,0,0.,4.8,0.,4.8
1979-07-02 00:09:38.430 ,3,0,,0,0.,4.8,0.,4.8,,0,0.,4.8,0.,4.8
1979-07-02 00:09:43.230 ,3,0,,0,0.,4.8,0.,4.8,,0,0.,4.8,0.,4.8
1979-07-02 00:09:48.030 ,3,0,,0,0.,4.8,0.,4.8,,0,0.,4.8,0.,4.8
1979-07-02 00:09:52.830 ,3,0,,0,8.,4.8,0.,4.8,,0,0.,4.8,0.,4.8
1979-07-02 00:09:57.630 ,3,0,,0,6.,4.8,0.,4.8,,0,0.,4.8,0.,4.8
1979-07-02 00:10:02.430 ,3,0,,0,5.,4.8,0.,4.8,,0,0.,4.8,0.,4.8
1979-07-02 00:10:07.230 ,3,0,,0,6.,4.8,0.,4.8,,0,0.,4.8,0.,4.8
1979-07-02 00:10:12.030 ,3,0,,0,8.,4.8,0.,4.8,,0,0.,4.8,1.,4.8
1979-07-02 00:10:16.830 ,3,0,,0,0.,4.8,0.,4.8,,0,0.,4.8,1.,4.8
1979-07-02 00:10:21.630 ,3,0,,0,0.,4.8,0.,4.8,,0,0.,4.8,0.,4.8
1979-07-02 00:10:26.430 ,2,0,,0,0.,4.8,0.,4.8,,0,0.,4.8,0.,4.8
1979-07-02 00:10:31.230 ,2,0,,0,0.,4.8,0.,4.8,,0,0.,4.8,1.,4.8
1979-07-02 00:10:36.030 ,2,0,,0,2.,4.8,0.,4.8,,0,0.,4.8,1.,4.8
1979-07-02 00:10:40.830 ,2,0,,0,12.,4.8,1.,4.8,,0,0.,4.8,2.,4.8
1979-07-02 00:10:45.630 ,2,0,,0,7.,4.8,0.,4.8,,0,0.,4.8,0.,4.8
1979-07-02 00:10:50.430 ,2,0,,0,9.,4.8,1.,4.8,,0,0.,4.8,1.,4.8
1979-07-02 00:10:55.230 ,2,0,,0,11.,4.8,0.,4.8,,0,0.,4.8,1.,4.8
1979-07-02 00:11:00.030 ,2,0,,0,5.,4.8,0.,4.8,,0,0.,4.8,1.,4.8
1979-07-02 00:11:04.830 ,2,0,,0,0.,4.8,0.,4.8,,0,0.,4.8,0.,4.8
1979-07-02 00:11:09.630 ,2,0,,0,0.,4.8,0.,4.8,,0,0.,4.8,1.,4.8
1979-07-02 00:11:14.430 ,1,0,,0,0.,4.8,0.,4.8,,0,0.,4.8,2.,4.8
1979-07-02 00:11:19.230 ,1,0,,0,0.,4.8,0.,4.8,,0,0.,4.8,0.,4.8
1979-07-02 00:11:24.030 ,1,0,,0,3.,4.8,0.,4.8,,0,0.,4.8,0.,4.8
1979-07-02 00:11:28.830 ,1,0,,0,5.,4.8,0.,4.8,,0,0.,4.8,0.,4.8
1979-07-02 00:11:33.630 ,1,0,,0,7.,4.8,0.,4.8,,0,0.,4.8,2.,4.8
1979-07-02 00:11:38.430 ,1,0,,0,7.,4.8,0.,4.8,,0,0.,4.8,1.,4.8
1979-07-02 00:11:43.230 ,1,0,,0,9.,4.8,0.,4.8,,0,0.,4.8,0.,4.8
1979-07-02 00:11:48.030 ,1,0,,0,4.,4.8,0.,4.8,,0,0.,4.8,0.,4.8
1979-07-02 00:11:52.830 ,1,0,,0,0.,4.8,0.,4.8,,0,0.,4.8,1.,4.8
1979-07-02 00:11:57.630 ,1,0,,0,0.,4.8,0.,4.8,,0,0.,4.8,0.,4.8
1979-07-02 00:12:02.430 ,0,0,,0,0.,4.8,0.,4.8,,0,0.,4.8,0.,4.8
1979-07-02 00:12:07.230 ,0,0,,0,0.,4.8,0.,4.8,,0,0.,4.8,1.,4.8
1979-07-02 00:12:12.030 ,0,0,,0,0.,4.8,0.,4.8,,0,0.,4.8,0.,4.8
1979-07-02 00:12:16.830 ,0,0,,0,7.,4.8,0.,4.8,,0,0.,4.8,0.,4.8
1979-07-02 00:12:21.630 ,0,0,,0,5.,4.8,0.,4.8,,0,0.,4.8,0.,4.8
1979-07-02 00:12:26.430 ,0,0,,0,4.,4.8,0.,4.8,,0,0.,4.8,0.,4.8
1979-07-02 00:12:31.230 ,0,0,,0,4.,4.8,0.,4.8,,0,0.,4.8,0.,4.8
1979-07-02 00:12:36.030 ,0,0,,0,3.,4.8,0.,4.8,,0,0.,4.8,0.,4.8
1979-07-02 00:12:40.830 ,0,0,,0,0.,4.8,0.,4.8,,0,0.,4.8,0.,4.8
1979-07-02 00:12:45.630 ,0,0,,0,0.,4.8,0.,4.8,,0,0.,4.8,0.,4.8
1979-07-02 00:12:50.430 ,0,0,,0,0.,4.8,0.,4.8,,0,0.,4.8,0.,4.8
1979-07-02 00:12:55.230 ,0,0,,0,0.,4.8,0.,4.8,,0,0.,4.8,1.,4.8
1979-07-02 00:13:00.030 ,0,0,,0,0.,4.8,0.,4.8,,0,0.,4.8,1.,4.8
1979-07-02 00:13:04.830 ,0,0,,0,4.,4.8,0.,4.8,,0,0.,4.8,0.,4.8
1979-07-02 00:13:09.630 ,0,0,,0,4.,4.8,0.,4.8,,0,0.,4.8,0.,4.8
1979-07-02 00:13:14.430 ,0,0,,0,5.,4.8,0.,4.8,,0,0.,4.8,0.,4.8
1979-07-02 00:13:19.230 ,0,0,,0,8.,4.8,0.,4.8,,0,0.,4.8,0.,4.8
1979-07-02 00:13:24.030 ,0,0,,0,5.,4.8,0.,4.8,,0,0.,4.8,0.,4.8
1979-07-02 00:13:28.830 ,0,0,,0,1.,4.8,0.,4.8,,0,0.,4.8,0.,4.8
1979-07-02 00:13:33.630 ,0,0,,0,0.,4.8,0.,4.8,,0,0.,4.8,1.,4.8
1979-07-02 00:13:38.430 ,1,0,,0,0.,4.8,0.,4.8,,0,0.,4.8,1.,4.8
1979-07-02 00:13:43.230 ,1,0,,0,0.,4.8,0.,4.8,,0,0.,4.8,0.,4.8
1979-07-02 00:13:48.030 ,1,0,,0,2.,4.8,0.,4.8,,0,0.,4.8,0.,4.8
1979-07-02 00:13:52.830 ,1,0,,0,7.,4.8,0.,4.8,,0,0.,4.8,0.,4.8
1979-07-02 00:13:57.630 ,1,0,,0,4.,4.8,0.,4.8,,0,0.,4.8,0.,4.8
1979-07-02 00:14:02.430 ,1,0,,0,1.,4.8,0.,4.8,,0,0.,4.8,2.,4.8
1979-07-02 00:14:07.230 ,1,0,,0,7.,4.8,0.,4.8,,0,0.,4.8,0.,4.8
1979-07-02 00:14:12.030 ,1,0,,0,7.,4.8,0.,4.8,,0,0.,4.8,0.,4.8
1979-07-02 00:14:16.830 ,1,0,,0,0.,4.8,0.,4.8,,0,0.,4.8,0.,4.8
1979-07-02 00:14:21.630 ,1,0,,0,0.,4.8,0.,4.8,,0,0.,4.8,1.,4.8
1979-07-02 00:14:26.430 ,2,0,,0,0.,4.8,0.,4.8,,0,0.,4.8,1.,4.8
1979-07-02 00:14:31.230 ,2,0,,0,0.,4.8,0.,4.8,,0,0.,4.8,0.,4.8
1979-07-02 00:14:36.030 ,2,0,,0,1.,4.8,0.,4.8,,0,0.,4.8,1.,4.8
1979-07-02 00:14:40.830 ,2,0,,0,2.,4.8,0.,4.8,,0,0.,4.8,0.,4.8
1979-07-02 00:14:45.630 ,2,0,,0,6.,4.8,0.,4.8,,0,0.,4.8,3.,4.8
1979-07-02 00:14:50.430 ,2,0,,0,3.,4.8,0.,4.8,,0,0.,4.8,2.,4.8
1979-07-02 00:14:55.230 ,2,0,,0,8.,4.8,0.,4.8,,0,0.,4.8,3.,4.8
1979-07-02 00:15:00.030 ,2,0,,0,8.,4.8,1.,4.8,,0,0.,4.8,1.,4.8
1979-07-02 00:15:04.830 ,2,0,,0,0.,4.8,0.,4.8,,0,0.,4.8,3.,4.8
1979-07-02 00:15:09.630 ,2,0,,0,0.,4.8,0.,4.8,,0,0.,4.8,0.,4.8
1979-07-02 00:15:14.430 ,3,0,,0,0.,4.8,0.,4.8,,0,0.,4.8,0.,4.8
1979-07-02 00:15:19.230 ,3,0,,0,0.,4.8,0.,4.8,,0,0.,4.8,1.,4.8
1979-07-02 00:15:24.030 ,3,0,,0,2.,4.8,0.,4.8,,0,0.,4.8,1.,4.8
1979-07-02 00:15:28.830 ,3,0,,0,5.,4.8,0.,4.8,,0,0.,4.8,0.,4.8
1979-07-02 00:15:33.630 ,3,0,,0,12.,4.8,0.,4.8,,0,0.,4.8,0.,4.8
1979-07-02 00:15:38.430 ,3,0,,0,2.,4.8,0.,4.8,,0,0.,4.8,1.,4.8
1979-07-02 00:15:43.230 ,3,0,,0,11.,4.8,0.,4.8,,0,0.,4.8,1.,4.8
1979-07-02 00:15:48.030 ,3,0,,0,4.,4.8,0.,4.8,,0,0.,4.8,1.,4.8
1979-07-02 00:15:52.830 ,3,0,,0,0.,4.8,0.,4.8,,0,0.,4.8,0.,4.8
1979-07-02 00:15:57.630 ,3,0,,0,0.,4.8,0.,4.8,,0,0.,4.8,0.,4.8
1979-07-02 00:16:02.430 ,4,0,,0,0.,4.8,0.,4.8,,0,0.,4.8,0.,4.8
1979-07-02 00:16:07.230 ,4,0,,0,0.,4.8,0.,4.8,,0,0.,4.8,1.,4.8
1979-07-02 00:16:12.030 ,4,0,,0,0.,4.8,0.,4.8,,0,0.,4.8,0.,4.8
1979-07-02 00:16:16.830 ,4,0,,0,5.,4.8,0.,4.8,,0,0.,4.8,0.,4.8
1979-07-02 00:16:21.630 ,4,0,,0,7.,4.8,0.,4.8,,0,0.,4.8,1.,4.8
1979-07-02 00:16:26.430 ,4,0,,0,4.,4.8,0.,4.8,,0,0.,4.8,0.,4.8
1979-07-02 00:16:31.230 ,4,0,,0,6.,4.8,0.,4.8,,0,0.,4.8,0.,4.8
1979-07-02 00:16:36.030 ,4,0,,0,10.,4.8,0.,4.8,,0,0.,4.8,0.,4.8
1979-07-02 00:16:40.830 ,4,0,,0,0.,4.8,0.,4.8,,0,0.,4.8,1.,4.8
1979-07-02 00:16:45.630 ,4,0,,0,0.,4.8,0.,4.8,,0,1.,4.8,1.,4.8
1979-07-02 00:16:50.430 ,5,0,,0,0.,4.8,0.,4.8,,0,0.,4.8,1.,4.8
1979-07-02 00:16:55.230 ,5,0,,0,0.,4.8,0.,4.8,,0,0.,4.8,1.,4.8
1979-07-02 00:17:00.030 ,5,0,,0,0.,4.8,0.,4.8,,0,0.,4.8,0.,4.8
1979-07-02 00:17:04.830 ,5,0,,0,4.,4.8,0.,4.8,,0,0.,4.8,0.,4.8
1979-07-02 00:17:09.630 ,5,0,,0,9.,4.8,0.,4.8,,0,0.,4.8,0.,4.8
1979-07-02 00:17:14.430 ,5,0,,0,6.,4.8,0.,4.8,,0,0.,4.8,0.,4.8
1979-07-02 00:17:19.230 ,5,0,,0,3.,4.8,0.,4.8,,0,0.,4.8,0.,4.8
1979-07-02 00:17:24.030 ,5,0,,0,4.,4.8,0.,4.8,,0,0.,4.8,1.,4.8
1979-07-02 00:17:28.830 ,5,0,,0,0.,4.8,0.,4.8,,0,0.,4.8,0.,4.8
1979-07-02 00:17:33.630 ,5,0,,0,0.,4.8,0.,4.8,,0,0.,4.8,0.,4.8
1979-07-02 00:17:38.430 ,6,0,,0,0.,4.8,0.,4.8,,0,0.,4.8,0.,4.8
1979-07-02 00:17:43.230 ,6,0,,0,0.,4.8,0.,4.8,,0,0.,4.8,0.,4.8
1979-07-02 00:17:48.030 ,6,0,,0,0.,4.8,0.,4.8,,0,0.,4.8,0.,4.8
1979-07-02 00:17:52.830 ,6,0,,0,10.,4.8,0.,4.8,,0,0.,4.8,0.,4.8
1979-07-02 00:17:57.630 ,6,0,,0,10.,4.8,0.,4.8,,0,0.,4.8,1.,4.8
1979-07-02 00:18:02.430 ,6,0,,0,7.,4.8,0.,4.8,,0,0.,4.8,0.,4.8
1979-07-02 00:18:07.230 ,6,0,,0,7.,4.8,0.,4.8,,0,0.,4.8,0.,4.8
1979-07-02 00:18:12.030 ,6,0,,0,7.,4.8,0.,4.8,,0,0.,4.8,0.,4.8
1979-07-02 00:18:16.830 ,6,0,,0,0.,4.8,0.,4.8,,0,0.,4.8,0.,4.8
1979-07-02 00:18:21.630 ,6,0,,0,0.,4.8,0.,4.8,,0,0.,4.8,1.,4.8
1979-07-02 00:18:26.430 ,7,0,,0,0.,4.8,0.,4.8,,0,0.,4.8,1.,4.8
1979-07-02 00:18:31.230 ,7,0,,0,0.,4.8,1.,4.8,,0,0.,4.8,0.,4.8
1979-07-02 00:18:36.030 ,7,0,,0,2.,4.8,0.,4.8,,0,0.,4.8,0.,4.8
1979-07-02 00:18:40.830 ,7,0,,0,13.,4.8,0.,4.8,,0,0.,4.8,0.,4.8
1979-07-02 00:18:45.630 ,7,0,,0,14.,4.8,0.,4.8,,0,0.,4.8,0.,4.8
1979-07-02 00:18:50.430 ,7,0,,0,14.,4.8,0.,4.8,,0,0.,4.8,0.,4.8
1979-07-02 00:18:55.230 ,7,0,,0,13.,4.8,0.,4.8,,0,0.,4.8,0.,4.8
1979-07-02 00:19:00.030 ,7,0,,0,15.,4.8,0.,4.8,,0,0.,4.8,0.,4.8
1979-07-02 00:19:04.830 ,7,0,,0,0.,4.8,0.,4.8,,0,0.,4.8,0.,4.8
1979-07-02 00:19:09.630 ,7,0,,0,0.,4.8,0.,4.8,,0,0.,4.8,0.,4.8
1979-07-02 00:19:14.430 ,3,1,,0,0.,4.8,0.,4.8,,0,0.,4.8,0.,4.8
1979-07-02 00:19:19.230 ,3,1,,0,0.,4.8,0.,4.8,,0,0.,4.8,0.,4.8
1979-07-02 00:19:24.030 ,3,1,,0,3.,4.8,0.,4.8,,0,0.,4.8,1.,4.8
1979-07-02 00:19:28.830 ,3,1,,0,7.,4.8,0.,4.8,,0,0.,4.8,0.,4.8
1979-07-02 00:19:33.630 ,3,1,,0,5.,4.8,0.,4.8,,0,0.,4.8,0.,4.8
1979-07-02 00:19:38.430 ,0,1,,0,8.,4.8,1.,4.8,,0,0.,4.8,1.,4.8
1979-07-02 00:19:43.230 ,0,1,,0,8.,4.8,1.,4.8,,0,0.,4.8,1.,4.8
1979-07-02 00:19:48.030 ,0,1,,0,5.,4.8,0.,4.8,,0,0.,4.8,0.,4.8
1979-07-02 00:19:52.830 ,0,1,,0,0.,4.8,0.,4.8,,0,0.,4.8,0.,4.8
1979-07-02 00:19:57.630 ,0,1,,0,0.,4.8,0.,4.8,,0,0.,4.8,1.,4.8
1979-07-02 00:20:02.430 ,4,1,,0,0.,4.8,0.,4.8,,0,0.,4.8,0.,4.8
1979-07-02 00:20:07.230 ,4,1,,0,0.,4.8,0.,4.8,,0,0.,4.8,0.,4.8
1979-07-02 00:20:12.030 ,4,1,,0,1.,4.8,0.,4.8,,0,0.,4.8,2.,4.8
1979-07-02 00:20:16.830 ,4,1,,0,6.,4.8,0.,4.8,,0,0.,4.8,0.,4.8
1979-07-02 00:20:21.630 ,4,1,,0,6.,4.8,0.,4.8,,0,0.,4.8,0.,4.8
1979-07-02 00:20:26.430 ,7,1,,0,8.,4.8,0.,4.8,,0,0.,4.8,0.,4.8
1979-07-02 00:20:31.230 ,7,1,,0,6.,4.8,0.,4.8,,0,0.,4.8,0.,4.8
1979-07-02 00:20:36.030 ,7,1,,0,5.,4.8,0.,4.8,,0,0.,4.8,0.,4.8
1979-07-02 00:20:40.830 ,7,1,,0,0.,4.8,0.,4.8,,0,0.,4.8,0.,4.8
1979-07-02 00:20:45.630 ,7,1,,0,1.,4.8,0.,4.8,,0,0.,4.8,2.,4.8
1979-07-02 00:20:50.430 ,3,1,,0,0.,4.8,0.,4.8,,0,0.,4.8,0.,4.8
1979-07-02 00:20:55.230 ,3,1,,0,0.,4.8,0.,4.8,,0,0.,4.8,0.,4.8
1979-07-02 00:21:00.030 ,3,1,,0,1.,4.8,0.,4.8,,0,0.,4.8,0.,4.8
1979-07-02 00:21:04.830 ,3,1,,0,3.,4.8,0.,4.8,,0,0.,4.8,0.,4.8
1979-07-02 00:21:09.630 ,3,1,,0,10.,4.8,1.,4.8,,0,0.,4.8,1.,4.8
1979-07-02 00:21:14.430 ,0,1,,0,5.,4.8,0.,4.8,,0,0.,4.8,1.,4.8
1979-07-02 00:21:19.230 ,0,1,,0,8.,4.8,0.,4.8,,0,0.,4.8,2.,4.8
1979-07-02 00:21:24.030 ,0,1,,0,6.,4.8,0.,4.8,,0,0.,4.8,0.,4.8
1979-07-02 00:21:28.830 ,0,1,,0,0.,4.8,0.,4.8,,0,0.,4.8,0.,4.8
1979-07-02 00:21:33.630 ,0,1,,0,0.,4.8,0.,4.8,,0,0.,4.8,0.,4.8
1979-07-02 00:21:38.430 ,4,1,,0,0.,4.8,0.,4.8,,0,0.,4.8,0.,4.8
1979-07-02 00:21:43.230 ,4,1,,0,0.,4.8,0.,4.8,,0,0.,4.8,2.,4.8
1979-07-02 00:21:48.030 ,4,1,,0,0.,4.8,0.,4.8,,0,0.,4.8,1.,4.8
1979-07-02 00:21:52.830 ,4,1,,0,7.,4.8,1.,4.8,,0,0.,4.8,0.,4.8
1979-07-02 00:21:57.630 ,4,1,,0,9.,4.8,0.,4.8,,0,0.,4.8,0.,4.8
1979-07-02 00:22:02.430 ,7,1,,0,8.,4.8,0.,4.8,,0,0.,4.8,0.,4.8
1979-07-02 00:22:07.230 ,7,1,,0,9.,4.8,0.,4.8,,0,0.,4.8,0.,4.8
1979-07-02 00:22:12.030 ,7,1,,0,8.,4.8,0.,4.8,,0,0.,4.8,0.,4.8
1979-07-02 00:22:16.830 ,7,1,,0,0.,4.8,0.,4.8,,0,0.,4.8,0.,4.8
1979-07-02 00:22:21.630 ,7,1,,0,0.,4.8,0.,4.8,,0,0.,4.8,1.,4.8
1979-07-02 00:22:26.430 ,3,1,,0,0.,4.8,0.,4.8,,0,0.,4.8,0.,4.8
1979-07-02 00:22:31.230 ,3,1,,0,0.,4.8,0.,4.8,,0,0.,4.8,0.,4.8
1979-07-02 00:22:36.030 ,3,1,,0,2.,4.8,0.,4.8,,0,0.,4.8,0.,4.8
1979-07-02 00:22:40.830 ,3,1,,0,9.,4.8,0.,4.8,,0,0.,4.8,0.,4.8
1979-07-02 00:22:45.630 ,3,1,,0,10.,4.8,0.,4.8,,0,0.,4.8,0.,4.8
1979-07-02 00:22:50.430 ,0,1,,0,9.,4.8,1.,4.8,,0,0.,4.8,1.,4.8
1979-07-02 00:22:55.230 ,0,1,,0,9.,4.8,0.,4.8,,0,0.,4.8,0.,4.8
1979-07-02 00:23:00.030 ,0,1,,0,9.,4.8,0.,4.8,,0,0.,4.8,1.,4.8
1979-07-02 00:23:04.830 ,0,1,,0,0.,4.8,0.,4.8,,0,0.,4.8,0.,4.8
1979-07-02 00:23:09.630 ,0,1,,0,0.,4.8,0.,4.8,,0,0.,4.8,0.,4.8
1979-07-02 00:23:14.430 ,4,1,,0,0.,4.8,0.,4.8,,0,0.,4.8,0.,4.8
1979-07-02 00:23:19.230 ,4,1,,0,0.,4.8,0.,4.8,,0,0.,4.8,0.,4.8
1979-07-02 00:23:24.030 ,4,1,,0,0.,4.8,0.,4.8,,0,0.,4.8,2.,4.8
1979-07-02 00:23:28.830 ,4,1,,0,8.,4.8,0.,4.8,,0,0.,4.8,0.,4.8
1979-07-02 00:23:33.630 ,4,1,,0,9.,4.8,0.,4.8,,0,0.,4.8,0.,4.8
1979-07-02 00:23:38.430 ,7,1,,0,4.,4.8,0.,4.8,,0,0.,4.8,0.,4.8
1979-07-02 00:23:43.230 ,7,1,,0,4.,4.8,0.,4.8,,0,0.,4.8,0.,4.8
1979-07-02 00:23:48.030 ,7,1,,0,5.,4.8,0.,4.8,,0,0.,4.8,0.,4.8
1979-07-02 00:23:52.830 ,7,1,,0,0.,4.8,0.,4.8,,0,0.,4.8,0.,4.8
1979-07-02 00:23:57.630 ,7,1,,0,0.,4.8,0.,4.8,,0,0.,4.8,0.,4.8
1979-07-02 00:24:02.430 ,3,1,,0,0.,4.8,0.,4.8,,0,0.,4.8,0.,4.8
1979-07-02 00:24:07.230 ,3,1,,0,0.,4.8,0.,4.8,,0,0.,4.8,0.,4.8
1979-07-02 00:24:12.030 ,3,1,,0,2.,4.8,0.,4.8,,0,0.,4.8,0.,4.8
1979-07-02 00:24:16.830 ,3,1,,0,9.,4.8,0.,4.8,,0,0.,4.8,0.,4.8
1979-07-02 00:24:21.630 ,3,1,,0,10.,4.8,0.,4.8,,0,0.,4.8,0.,4.8
1979-07-02 00:24:26.430 ,0,1,,0,4.,4.8,0.,4.8,,0,0.,4.8,0.,4.8
1979-07-02 00:24:31.230 ,0,1,,0,6.,4.8,0.,4.8,,0,0.,4.8,2.,4.8
1979-07-02 00:24:36.030 ,0,1,,0,4.,4.8,0.,4.8,,0,0.,4.8,0.,4.8
1979-07-02 00:24:40.830 ,0,1,,0,0.,4.8,0.,4.8,,0,0.,4.8,1.,4.8
1979-07-02 00:24:45.630 ,0,1,,0,0.,4.8,0.,4.8,,0,0.,4.8,0.,4.8
1979-07-02 00:24:50.430 ,4,1,,0,0.,4.8,0.,4.8,,0,0.,4.8,0.,4.8
1979-07-02 00:24:55.230 ,4,1,,0,0.,4.8,0.,4.8,,0,0.,4.8,0.,4.8
1979-07-02 00:25:00.030 ,4,1,,0,2.,4.8,0.,4.8,,0,0.,4.8,0.,4.8
1979-07-02 00:25:04.830 ,4,1,,0,7.,4.8,0.,4.8,,0,0.,4.8,0.,4.8
1979-07-02 00:25:09.630 ,4,1,,0,5.,4.8,0.,4.8,,0,0.,4.8,0.,4.8
1979-07-02 00:25:14.430 ,7,1,,0,7.,4.8,0.,4.8,,0,0.,4.8,0.,4.8
1979-07-02 00:25:19.230 ,7,1,,0,6.,4.8,0.,4.8,,0,0.,4.8,1.,4.8
1979-07-02 00:25:24.030 ,7,1,,0,7.,4.8,0.,4.8,,0,0.,4.8,0.,4.8
1979-07-02 00:25:28.830 ,7,1,,0,0.,4.8,0.,4.8,,0,0.,4.8,0.,4.8
1979-07-02 00:25:33.630 ,7,1,,0,0.,4.8,0.,4.8,,0,0.,4.8,0.,4.8
1979-07-02 00:25:38.430 ,3,1,,0,0.,4.8,0.,4.8,,0,1.,4.8,0.,4.8
1979-07-02 00:25:43.230 ,3,1,,0,0.,4.8,0.,4.8,,0,0.,4.8,0.,4.8
1979-07-02 00:25:48.030 ,3,1,,0,0.,4.8,0.,4.8,,0,0.,4.8,0.,4.8
1979-07-02 00:25:52.830 ,3,1,,0,6.,4.8,0.,4.8,,0,0.,4.8,0.,4.8
1979-07-02 00:25:57.630 ,3,1,,0,10.,4.8,0.,4.8,,0,0.,4.8,1.,4.8
1979-07-02 00:26:02.430 ,0,1,,0,7.,4.8,0.,4.8,,0,0.,4.8,2.,4.8
1979-07-02 00:26:07.230 ,0,1,,0,5.,4.8,0.,4.8,,0,0.,4.8,2.,4.8
1979-07-02 00:26:12.030 ,0,1,,0,2.,4.8,0.,4.8,,0,0.,4.8,0.,4.8
1979-07-02 00:26:16.830 ,0,1,,0,0.,4.8,0.,4.8,,0,0.,4.8,0.,4.8
1979-07-02 00:26:21.630 ,0,1,,0,0.,4.8,0.,4.8,,0,0.,4.8,0.,4.8
1979-07-02 00:26:26.430 ,4,1,,0,0.,4.8,0.,4.8,,0,0.,4.8,1.,4.8
1979-07-02 00:26:31.230 ,4,1,,0,0.,4.8,0.,4.8,,0,0.,4.8,0.,4.8
1979-07-02 00:26:36.030 ,4,1,,0,1.,4.8,0.,4.8,,0,0.,4.8,0.,4.8
1979-07-02 00:26:40.830 ,4,1,,0,10.,4.8,0.,4.8,,0,0.,4.8,2.,4.8
1979-07-02 00:26:45.630 ,4,1,,0,12.,4.8,0.,4.8,,0,0.,4.8,0.,4.8
1979-07-02 00:26:50.430 ,7,1,,0,5.,4.8,0.,4.8,,0,0.,4.8,0.,4.8
1979-07-02 00:26:55.230 ,7,1,,0,9.,4.8,0.,4.8,,0,0.,4.8,0.,4.8
1979-07-02 00:27:00.030 ,7,1,,0,5.,4.8,0.,4.8,,0,0.,4.8,0.,4.8
1979-07-02 00:27:04.830 ,7,1,,0,0.,4.8,0.,4.8,,0,0.,4.8,0.,4.8
1979-07-02 00:27:09.630 ,7,1,,0,0.,4.8,0.,4.8,,0,0.,4.8,0.,4.8
1979-07-02 00:27:14.430 ,3,1,,0,0.,4.8,0.,4.8,,0,0.,4.8,0.,4.8
1979-07-02 00:27:19.230 ,3,1,,0,0.,4.8,0.,4.8,,0,0.,4.8,0.,4.8
1979-07-02 00:27:24.030 ,3,1,,0,1.,4.8,0.,4.8,,0,0.,4.8,0.,4.8
1979-07-02 00:27:28.830 ,3,1,,0,6.,4.8,0.,4.8,,0,0.,4.8,0.,4.8
1979-07-02 00:27:33.630 ,3,1,,0,10.,4.8,0.,4.8,,0,0.,4.8,0.,4.8
1979-07-02 00:27:38.430 ,0,1,,0,8.,4.8,0.,4.8,,0,0.,4.8,0.,4.8
1979-07-02 00:27:43.230 ,0,1,,0,16.,4.8,1.,4.8,,0,0.,4.8,0.,4.8
1979-07-02 00:27:48.030 ,0,1,,0,4.,4.8,0.,4.8,,0,0.,4.8,0.,4.8
1979-07-02 00:27:52.830 ,0,1,,0,1.,4.8,0.,4.8,,0,0.,4.8,1.,4.8
1979-07-02 00:27:57.630 ,0,1,,0,0.,4.8,0.,4.8,,0,0.,4.8,0.,4.8
1979-07-02 00:28:02.430 ,4,1,,0,0.,4.8,0.,4.8,,0,0.,4.8,0.,4.8
1979-07-02 00:28:07.230 ,4,1,,0,0.,4.8,0.,4.8,,0,0.,4.8,0.,4.8
1979-07-02 00:28:12.030 ,4,1,,0,2.,4.8,0.,4.8,,0,0.,4.8,0.,4.8
1979-07-02 00:28:16.830 ,4,1,,0,5.,4.8,0.,4.8,,0,0.,4.8,0.,4.8
1979-07-02 00:28:21.630 ,4,1,,0,8.,4.8,0.,4.8,,0,0.,4.8,0.,4.8
1979-07-02 00:28:26.430 ,7,1,,0,6.,4.8,0.,4.8,,0,0.,4.8,0.,4.8
1979-07-02 00:28:31.230 ,7,1,,0,3.,4.8,0.,4.8,,0,0.,4.8,1.,4.8
1979-07-02 00:28:36.030 ,7,1,,0,4.,4.8,0.,4.8,,0,0.,4.8,0.,4.8
1979-07-02 00:28:40.830 ,7,1,,0,0.,4.8,0.,4.8,,0,0.,4.8,0.,4.8
1979-07-02 00:28:45.630 ,7,1,,0,0.,4.8,0.,4.8,,0,0.,4.8,0.,4.8
1979-07-02 00:28:50.430 ,3,1,,0,0.,4.8,0.,4.8,,0,0.,4.8,0.,4.8
1979-07-02 00:28:55.230 ,3,1,,0,0.,4.8,0.,4.8,,0,0.,4.8,0.,4.8
1979-07-02 00:29:00.030 ,3,1,,0,1.,4.8,1.,4.8,,0,0.,4.8,0.,4.8
1979-07-02 00:29:04.830 ,3,1,,0,3.,4.8,0.,4.8,,0,0.,4.8,1.,4.8
1979-07-02 00:29:09.630 ,3,1,,0,8.,4.8,0.,4.8,,0,0.,4.8,2.,4.8
1979-07-02 00:29:14.430 ,0,1,,0,7.,4.8,0.,4.8,,0,0.,4.8,0.,4.8
1979-07-02 00:29:19.230 ,0,1,,0,8.,4.8,0.,4.8,,0,0.,4.8,0.,4.8
1979-07-02 00:29:24.030 ,0,1,,0,5.,4.8,0.,4.8,,0,0.,4.8,0.,4.8
1979-07-02 00:29:28.830 ,0,1,,0,0.,4.8,0.,4.8,,0,0.,4.8,1.,4.8
1979-07-02 00:29:33.630 ,0,1,,0,0.,4.8,0.,4.8,,0,0.,4.8,0.,4.8
1979-07-02 00:29:38.430 ,0,0,,0,0.,4.8,0.,4.8,,0,0.,4.8,0.,4.8
1979-07-02 00:29:43.230 ,0,0,,0,1.,4.8,0.,4.8,,0,0.,4.8,0.,4.8
1979-07-02 00:29:48.030 ,0,0,,0,3.,4.8,0.,4.8,,0,0.,4.8,1.,4.8
1979-07-02 00:29:52.830 ,0,0,,0,9.,4.8,0.,4.8,,0,0.,4.8,0.,4.8
1979-07-02 00:29:57.630 ,0,0,,0,9.,4.8,0.,4.8,,0,0.,4.8,1.,4.8
1979-07-02 00:30:02.430 ,0,0,,0,8.,4.8,0.,4.8,,0,0.,4.8,0.,4.8
1979-07-02 00:30:07.230 ,0,0,,0,4.,4.8,0.,4.8,,0,0.,4.8,0.,4.8
1979-07-02 00:30:12.030 ,0,0,,0,6.,4.8,0.,4.8,,0,0.,4.8,0.,4.8